NOAA NWS Hourly Roundups by Site

Regional Weather Roundup for State College, PA

To Select Another Site Choose from List

Select Site:  

000
ASUS41 KCTP 090110
RWRCTP

REGIONAL WEATHER ROUNDUP
NATIONAL WEATHER SERVICE STATE COLLEGE PA
900 PM EDT SAT MAY 08 2021

Note: "fair" indicates few or no clouds below 12,000 feet with no
significant weather and/or obstructions to visibility.

* = STATION THAT DOES NOT REPORT PRECIPITATION /E.G. RAIN...SNOW...ETC/
    THUNDER OR FOG.

PAZ002>004-007>009-013>016-020>023-029>032-090200-
WESTERN PENNSYLVANIA

CITY           SKY/WX    TMP DP  RH WIND       PRES   REMARKS
ERIE           CLEAR     45  36  70 SW7       30.09R
MEADVILLE      MOCLDY    41  34  76 CALM      30.08S
FRANKLIN       MOCLDY    39  33  79 W5        30.09R
NEW CASTLE     FAIR      40  33  76 CALM      30.10R
BEAVER COUNTY  PTCLDY    43  34  70 N3        30.09S
BUTLER         PTCLDY    41  33  73 CALM      30.10R
PITTSBURGH INT PTCLDY    46  32  58 NE3       30.08R
PITTSBURGH     CLEAR     44  34  67 N5        30.07R
INDIANA*       CLEAR     43  32  65 CALM      30.12R
LATROBE        CLEAR     45  34  65 NW7       30.09R
WASHINGTON CO* PTCLDY    44  34  67 CALM      30.11R
$$

PAZ004>006-010>012-017>019-024>028-033>037-041-042-045-046-049>053-090200-
CENTRAL PENNSYLVANIA

CITY           SKY/WX    TMP DP  RH WIND       PRES   REMARKS
BRADFORD       PTCLDY    42  32  67 W8        30.03R
ST MARYS       CLOUDY    43  36  75 W9G17     30.07R
DUBOIS         CLEAR     41  33  73 W10       30.05R
CLEARFIELD     CLEAR     43  34  70 SW8       30.06R
JOHNSTOWN      CLEAR     40  28  62 NW13      30.05R
SOMERSET       FAIR      39  30  70 NW3       30.07R
ALTOONA        CLEAR     45  32  60 NW8       30.06R
STATE COLLEGE  CLEAR     45  34  65 W10       30.04R
REEDSVILLE     FAIR      46 N/A N/A W9        30.04R
WELLSBORO      FAIR      43  36  75 CALM      29.99R
WILLIAMSPORT   PTCLDY    47  39  74 W13       30.00R
SELINSGROVE    MOCLDY    45  40  82 CALM      30.03R
FT INDIANTOWN  CLEAR     48  48 100 W8        30.01R
CAPITAL CITY   CLEAR     50  37  61 W5        30.03R
HARRISBURG     PTCLDY    50  37  61 NW6       30.02R
YORK           CLEAR     46  38  73 CALM      30.03R
$$

PAZ038>040-043-044-047-048-054-055-060>062-067>071-090200-
EASTERN PENNSYLVANIA

CITY           SKY/WX    TMP DP  RH WIND       PRES   REMARKS
TOWANDA        MOCLDY    48  37  66 CALM      30.03R
SCRANTON       CLOUDY    47  40  76 CALM      29.98R
MOUNT POCONO   MOCLDY    43  34  70 W16G23    29.94R
HAZLETON       MOCLDY    43  39  87 W3        30.01R
LEHIGHTON      CLOUDY    50  41  71 W5        29.99R
ALLENTOWN      CLEAR     47  39  74 W5        29.97R
QN CITY/ALNTWN FAIR      48  41  76 W6        30.00R
QUAKERTOWN*    PTCLDY    48  43  81 VRB5      29.98R
PERKASIE*      MOCLDY    46  43  87 NW7       29.99R
DOYLESTOWN     CLOUDY    51  39  63 NW6       29.97R
READING        PTCLDY    47  43  86 NW6       29.99R
LANCASTER      CLEAR     47  39  74 W7        30.01R
COATESVILLE    CLEAR     45  41  87 NW8       30.01R
WEST CHESTER   PTCLDY    48  37  66 W8        30.00R
POTTSTOWN      PTCLDY    46  39  76 NW6       30.01R
BLUE BELL      PTCLDY    49  40  72 NW5       29.99R
NORTH PHILA    MOCLDY    50  41  71 NW6       29.99R
PHILADELPHIA   PTCLDY    51  39  63 NW13G20   29.99R
$$


 

View Past Reports for State College, PA.

Products Courtesy of NOAA-NWS
NWS Information Parsing Script by Ken True at Saratoga Weather - Script by SE Lincoln Weather.